Weather in Kur'i

Russia / Sverdlovsk Oblast     56°54′41″N   62°06′49″E
temp.,
°C
wind,
m/s
gust,
m/s
humid.,
%
clouds,
%
prec.,
mm/h
press.,
hPa
HPBL,
m
11 may, tue
tue1123:00+13s224285 0.0 102627
02:00+10s22455 0.0 102613
05:00+9sw22515 0.0 102710
08:00+15ssw24375 0.0 1028310
11:00+20ssw3325100 0.0 10281365
14:00+21sw2322100 0.0 10271649
17:00+22wsw2321100 0.0 10271682
20:00+18sw22355 0.0 102716
12 may, wed
wed1223:00+14wsw33395 0.0 102736
02:00+12wnw245428 0.0 102751
05:00+13nnw2583100 0.0 1028116
08:00+15nnw3656100 0.0 1029428
11:00+20nnw3435100 0.0 10281187
14:00+22nnw3428100 0.0 10271766
17:00+23nnw3428100 0.0 10272035
20:00+19nnw114325 0.0 102611
13 may, thu
thu1323:00+16w124941 0.0 102711
02:00+13nw246424 0.0 102750
05:00+13nw257199 0.0 102788
08:00+18nw46505 0.0 1027397
11:00+23nnw463648 0.0 10261817
14:00+26nnw4632100 0.0 10252267
17:00+26nnw4530100 0.0 10252398
20:00+22nw224312 0.0 102544
14 may, fri
fri1423:00+17ese256224 0.0 102773
02:00+15sse116978 0.0 102711
05:00+14sse11725 0.0 102810
08:00+20s34525 0.0 1027351
11:00+25ssw353612 0.0 10261477
14:00+28wsw45255 0.0 10242720
17:00+29w46248 0.0 10233125
20:00+24wnw22375 0.0 102235
15 may, sat
sat1523:00+19wnw36490 0.0 102395
02:00+17wnw35575 0.0 102381
05:00+16w3763100 0.0 1023117
08:00+22w36477 0.0 1023339
11:00+26w453269 0.0 10221604
14:00+29w462463 0.0 10202816
17:00+28w3627100 0.0 10182813
20:00